User: anonymous   Login
Location: Unspecified
(0.0000°N, 0.0000°E)
Time: 10:26:51
(UTC+00:00)
Language:

AUBIESAT-1 - Orbit

View from above orbital plane
View from above orbital plane
View from above satellite
View from above satellite

Ground track
Ground track

The orbit data is extracted from the following two-line orbital elements,

1 37854U 11061E   16269.19458360  .00004333  00000-0  24276-3 0  9993
2 37854 101.6979   2.2729 0171726 138.5826 222.8551 15.02765974267119
Epoch (UTC): 25 September 2016 04:40:12
Eccentricity: 0.0171726
inclination: 101.6979°
perigee height: 439 km
apogee height: 677 km
right ascension of ascending node: 2.2729°
argument of perigee: 138.5826°
revolutions per day: 15.02765974
mean anomaly at epoch: 222.8551°
orbit number at epoch: 26711

The dashed part of the orbit path shows where the satellite is in the earth's shadow,  

DLR